| time (UTC) | temp F | wind direction | speed MPH | gust MPH | rain 1hr in | rain 24hr in | rain mn in | humidity % | barometer mb |
| 20260507030047 | 49 | 0 | 0.0 | 1.0 | 0.00 | 0.00 | 0.00 | 69 | 1018.2 |
| 20260507024544 | 50 | 0 | 0.0 | 1.0 | 0.00 | 0.00 | 0.00 | 69 | 1018.1 |
| 20260507023044 | 49 | 0 | 0.0 | 1.0 | 0.00 | 0.00 | 0.00 | 69 | 1017.9 |
| 20260507021548 | 49 | 0 | 0.0 | 0.0 | 0.00 | 0.00 | 0.00 | 69 | 1017.8 |
| 20260507020047 | 50 | 0 | 0.0 | 0.0 | 0.00 | 0.00 | 0.00 | 68 | 1017.8 |
| 20260507014556 | 52 | 0 | 0.0 | 1.0 | 0.00 | 0.00 | 0.00 | 66 | 1017.6 |
| 20260507013050 | 52 | 0 | 0.0 | 1.0 | 0.00 | 0.00 | 0.00 | 65 | 1017.4 |
| 20260507011545 | 53 | 0 | 0.0 | 1.0 | 0.00 | 0.00 | 0.00 | 63 | 1017.3 |
| 20260507010046 | 54 | 0 | 0.0 | 1.0 | 0.00 | 0.00 | 0.00 | 60 | 1017.1 |
| 20260507004545 | 55 | 0 | 0.0 | 1.0 | 0.00 | 0.00 | 0.00 | 58 | 1017.0 |
| 20260507003046 | 56 | 0 | 0.0 | 2.0 | 0.00 | 0.00 | 0.00 | 55 | 1016.9 |
| 20260507001547 | 57 | 332 | 0.0 | 6.0 | 0.00 | 0.00 | 0.00 | 52 | 1016.8 |
| 20260507000038 | 58 | 32 | 0.0 | 8.0 | 0.00 | 0.00 | 0.00 | 52 | 1016.7 |
| 20260506234545 | 58 | 0 | 1.0 | 4.0 | 0.00 | 0.00 | 0.00 | 53 | 1016.6 |
| 20260506233052 | 59 | 0 | 2.0 | 8.0 | 0.00 | 0.00 | 0.00 | 51 | 1016.3 |
| 20260506231542 | 60 | 35 | 1.0 | 7.0 | 0.00 | 0.00 | 0.00 | 52 | 1016.0 |
| 20260506230041 | 60 | 0 | 2.0 | 9.0 | 0.00 | 0.00 | 0.00 | 50 | 1015.8 |
| 20260506224549 | 61 | 353 | 2.0 | 8.0 | 0.00 | 0.00 | 0.00 | 48 | 1015.9 |
| 20260506223037 | 61 | 347 | 1.0 | 7.0 | 0.00 | 0.00 | 0.00 | 50 | 1015.8 |
| 20260506221545 | 61 | 31 | 2.0 | 7.0 | 0.00 | 0.00 | 0.00 | 51 | 1015.7 |
| 20260506220048 | 62 | 51 | 0.0 | 6.0 | 0.00 | 0.00 | 0.00 | 54 | 1015.9 |
| 20260506214550 | 61 | 358 | 1.0 | 8.0 | 0.00 | 0.00 | 0.00 | 52 | 1015.9 |
| 20260506213040 | 62 | 23 | 0.0 | 7.0 | 0.00 | 0.00 | 0.00 | 51 | 1015.9 |
| 20260506211539 | 62 | 69 | 1.0 | 8.0 | 0.00 | 0.00 | 0.00 | 52 | 1015.9 |
| 20260506210047 | 62 | 62 | 1.0 | 7.0 | 0.00 | 0.00 | 0.00 | 51 | 1016.2 |
| 20260506204549 | 62 | 350 | 1.0 | 8.0 | 0.00 | 0.00 | 0.00 | 50 | 1016.2 |
| 20260506203045 | 62 | 77 | 1.0 | 7.0 | 0.00 | 0.00 | 0.00 | 54 | 1016.6 |
| 20260506201545 | 62 | 13 | 1.0 | 8.0 | 0.00 | 0.00 | 0.00 | 55 | 1016.8 |
| 20260506200047 | 61 | 0 | 1.0 | 6.0 | 0.00 | 0.00 | 0.00 | 52 | 1017.0 |
| 20260506194542 | 60 | 0 | 0.0 | 6.0 | 0.00 | 0.00 | 0.00 | 54 | 1016.8 |
| 20260506193039 | 61 | 0 | 2.0 | 8.0 | 0.00 | 0.00 | 0.00 | 54 | 1017.0 |
| 20260506191538 | 61 | 38 | 0.0 | 8.0 | 0.00 | 0.00 | 0.00 | 54 | 1017.2 |
| 20260506190045 | 61 | 0 | 1.0 | 6.0 | 0.00 | 0.00 | 0.00 | 54 | 1017.4 |
| 20260506184542 | 60 | 8 | 1.0 | 8.0 | 0.00 | 0.00 | 0.00 | 55 | 1017.5 |
| 20260506183039 | 61 | 278 | 0.0 | 6.0 | 0.00 | 0.00 | 0.00 | 59 | 1017.7 |
| 20260506181539 | 59 | 63 | 0.0 | 6.0 | 0.00 | 0.00 | 0.00 | 59 | 1018.3 |
| 20260506180105 | 59 | 108 | 1.0 | 4.0 | 0.00 | 0.00 | 0.00 | 59 | 1018.6 |
| 20260506174543 | 59 | 0 | 1.0 | 6.0 | 0.00 | 0.00 | 0.00 | 62 | 1018.7 |
| 20260506173054 | 59 | 0 | 0.0 | 4.0 | 0.00 | 0.00 | 0.00 | 61 | 1018.6 |
| 20260506171545 | 59 | 37 | 1.0 | 6.0 | 0.00 | 0.00 | 0.00 | 58 | 1018.6 |
| 20260506170041 | 60 | 266 | 0.0 | 7.0 | 0.00 | 0.00 | 0.00 | 58 | 1018.4 |
| 20260506164544 | 60 | 61 | 0.0 | 6.0 | 0.00 | 0.00 | 0.00 | 60 | 1018.7 |
| 20260506163050 | 58 | 250 | 1.0 | 6.0 | 0.00 | 0.00 | 0.00 | 62 | 1018.2 |
| 20260506161553 | 56 | 309 | 3.0 | 10.0 | 0.00 | 0.00 | 0.00 | 64 | 1017.8 |
| 20260506160046 | 55 | 59 | 2.0 | 9.0 | 0.00 | 0.00 | 0.00 | 65 | 1017.2 |
| 20260506154542 | 54 | 63 | 2.0 | 6.0 | 0.00 | 0.01 | 0.00 | 66 | 1017.5 |
| 20260506153046 | 54 | 102 | 0.0 | 7.0 | 0.00 | 0.01 | 0.00 | 71 | 1017.7 |
| 20260506151547 | 53 | 0 | 3.0 | 9.0 | 0.00 | 0.01 | 0.00 | 67 | 1017.5 |
| 20260506150046 | 52 | 81 | 1.0 | 6.0 | 0.00 | 0.01 | 0.00 | 73 | 1017.4 |
| 20260506144600 | 51 | 0 | 1.0 | 6.0 | 0.00 | 0.01 | 0.00 | 74 | 1017.3 |
| 20260506143050 | 50 | 63 | 1.0 | 8.0 | 0.00 | 0.01 | 0.00 | 75 | 1017.4 |
| 20260506141545 | 49 | 56 | 0.0 | 7.0 | 0.00 | 0.01 | 0.00 | 78 | 1017.5 |
| 20260506140048 | 49 | 23 | 2.0 | 6.0 | 0.00 | 0.01 | 0.00 | 77 | 1017.7 |
| 20260506134545 | 48 | 51 | 1.0 | 7.0 | 0.00 | 0.01 | 0.00 | 80 | 1017.4 |
| 20260506133046 | 47 | 0 | 0.0 | 8.0 | 0.00 | 0.01 | 0.00 | 83 | 1017.6 |
| 20260506131544 | 46 | 39 | 1.0 | 6.0 | 0.00 | 0.01 | 0.00 | 85 | 1017.4 |
| 20260506130052 | 46 | 0 | 1.0 | 7.0 | 0.00 | 0.01 | 0.00 | 87 | 1017.2 |
| 20260506124550 | 46 | 0 | 1.0 | 7.0 | 0.00 | 0.03 | 0.00 | 87 | 1017.0 |
| 20260506123039 | 45 | 342 | 1.0 | 6.0 | 0.00 | 0.03 | 0.00 | 87 | 1017.0 |
| 20260506121548 | 45 | 15 | 1.0 | 11.0 | 0.00 | 0.03 | 0.00 | 87 | 1017.0 |
| 20260506120047 | 45 | 315 | 1.0 | 9.0 | 0.00 | 0.03 | 0.00 | 88 | 1017.2 |
| 20260506114539 | 45 | 27 | 1.0 | 7.0 | 0.00 | 0.03 | 0.00 | 88 | 1016.8 |
| 20260506113038 | 45 | 105 | 1.0 | 6.0 | 0.00 | 0.03 | 0.00 | 89 | 1016.7 |
| 20260506111547 | 45 | 336 | 2.0 | 6.0 | 0.00 | 0.03 | 0.00 | 88 | 1016.6 |
| 20260506110046 | 45 | 88 | 1.0 | 6.0 | 0.00 | 0.03 | 0.00 | 88 | 1016.2 |
| 20260506104537 | 45 | 0 | 0.0 | 6.0 | 0.00 | 0.05 | 0.00 | 88 | 1015.7 |
| 20260506103043 | 45 | 0 | 1.0 | 6.0 | 0.00 | 0.05 | 0.00 | 88 | 1015.7 |
| 20260506101541 | 45 | 0 | 1.0 | 6.0 | 0.00 | 0.05 | 0.00 | 88 | 1015.0 |
| 20260506100038 | 45 | 0 | 0.0 | 5.0 | 0.00 | 0.05 | 0.00 | 88 | 1014.6 |
| 20260506094558 | 45 | 338 | 0.0 | 5.0 | 0.00 | 0.09 | 0.00 | 87 | 1014.5 |
| 20260506093047 | 45 | 326 | 1.0 | 7.0 | 0.00 | 0.09 | 0.00 | 86 | 1014.5 |
| 20260506091545 | 45 | 0 | 1.0 | 4.0 | 0.00 | 0.09 | 0.00 | 85 | 1014.3 |
| 20260506090044 | 45 | 0 | 0.0 | 3.0 | 0.00 | 0.09 | 0.00 | 86 | 1013.6 |
| 20260506084540 | 45 | 90 | 0.0 | 2.0 | 0.00 | 0.32 | 0.00 | 86 | 1013.3 |
| 20260506083042 | 45 | 82 | 0.0 | 3.0 | 0.00 | 0.32 | 0.00 | 86 | 1013.8 |
| 20260506081544 | 45 | 0 | 0.0 | 4.0 | 0.00 | 0.32 | 0.00 | 85 | 1013.5 |
| 20260506073055 | 46 | 256 | 0.0 | 5.0 | 0.00 | 0.56 | 0.00 | 86 | 1012.8 |
| 20260506071541 | 46 | 0 | 1.0 | 6.0 | 0.00 | 0.56 | 0.00 | 86 | 1012.7 |
| 20260506061545 | 45 | 332 | 2.0 | 9.0 | 0.00 | 0.83 | 0.00 | 89 | 1012.9 |
| 20260506044551 | 46 | 0 | 1.0 | 6.0 | 0.00 | 0.86 | 0.86 | 89 | 1013.6 |
| 20260506043044 | 46 | 346 | 0.0 | 5.0 | 0.00 | 0.86 | 0.86 | 90 | 1013.0 |
| 20260506041550 | 46 | 0 | 2.0 | 6.0 | 0.00 | 0.86 | 0.86 | 90 | 1013.0 |
| 20260506040049 | 46 | 0 | 0.0 | 5.0 | 0.00 | 0.86 | 0.86 | 90 | 1012.6 |
| 20260506034552 | 46 | 0 | 0.0 | 4.0 | 0.00 | 0.86 | 0.86 | 90 | 1012.5 |
| 20260506033053 | 46 | 0 | 0.0 | 7.0 | 0.00 | 0.86 | 0.86 | 89 | 1012.4 |
| 20260506031544 | 46 | 59 | 2.0 | 7.0 | 0.00 | 0.86 | 0.86 | 90 | 1011.8 |